Terminal Aerodrome Forecast
Issued by NWS

Home | Current Version | Previous Version | Text Only | Print | Product List | Glossary On
Versions: 1 2 3 4 5 6 7 8 9 10 11 12 13 14 15 16 17 18 19 20 21 22
000
FTUS41 KALY 210911 AAA
TAFPSF
TAF AMD
KPSF 210911Z 2109/2206 VRB03KT 6SM -SHRA BR SCT015 OVC040
      TEMPO 2111/2113 3SM -SHRA BR BKN015
     FM211300 25010KT 5SM BR VCSH BKN008 OVC015
     FM211600 27012G22KT P6SM VCSH BKN015 OVC025
     FM211900 28015G25KT P6SM SCT025 BKN035=

USA.gov is the U.S. government's official web portal to all federal, state and local government web resources and services.